CW5456 Hansville WA US current weather conditions

sailwx.info

Wind from 165 at 2 knots gusting 12

Air temperature 10.6° C
Dewpoint 8.1° C

Last reported at 2014-Nov-21 01:50 UTC.
Time now 2014-Nov-21 02:28 UTC

Location: N 47°55' W 122°35'.
View on Google Maps.

See reports from other nearby stations

  
Tides and Currents Weather Stations Pressure Air Temp Water Temp Dewpoint Dewpoint Depression Visibility Wind Speed Wind Dir Waves Ship Positions
date/time (UTC)wind fromknots sea level pressurealtimeterstation pressurevisibilityair tempwater tempwave heightnotes
2014-Nov-21 01:50 165 2 gusting 12 10.6
2014-Nov-21 01:25 194 0 gusting 14 11.1
2014-Nov-21 01:15 114 6 gusting 12 11.1
2014-Nov-21 01:05 194 1 gusting 11 11.1
2014-Nov-21 00:50 186 2 gusting 14 11.1
2014-Nov-21 00:35 137 7 gusting 8 11.1
2014-Nov-21 00:20 215 3 gusting 10 11.1
2014-Nov-21 00:05 148 11 gusting 13 11.1
2014-Nov-20 23:50 188 5 gusting 14 11.7
2014-Nov-20 23:30 137 7 gusting 13 11.7
2014-Nov-20 23:14 195 6 gusting 15 11.7
2014-Nov-20 22:59 178 5 gusting 15 11.7
2014-Nov-20 22:54 172 3 gusting 15 12.2
2014-Nov-20 22:49 164 9 gusting 13 12.2
2014-Nov-20 22:44 200 6 gusting 13 12.2
2014-Nov-20 22:29 188 3 gusting 15 12.2
2014-Nov-20 22:09 178 6 gusting 11 11.7
2014-Nov-20 22:04 186 6 gusting 16 11.7
2014-Nov-20 21:54 196 5 gusting 28 11.7
2014-Nov-20 21:44 168 9 gusting 16 11.1
2014-Nov-20 21:34 190 1 gusting 16 11.1
2014-Nov-20 21:19 230 1 gusting 18 11.7
2014-Nov-20 20:54 173 12 gusting 18 12.2
2014-Nov-20 20:44 178 9 gusting 21 12.8
2014-Nov-20 20:04 102 1 gusting 19 11.7
2014-Nov-20 19:49 175 9 gusting 17 11.7
2014-Nov-20 19:44 209 6 gusting 14 11.7
2014-Nov-20 19:34 155 6 gusting 16 11.7
2014-Nov-20 19:04 158 5 gusting 17 10.6
2014-Nov-20 18:34 190 7 gusting 16 10.6
2014-Nov-20 18:14 191 6 gusting 18 10.0
2014-Nov-20 18:04 188 1 gusting 12 10.0
2014-Nov-20 17:59 195 3 gusting 10 10.0
2014-Nov-20 17:49 065 5 gusting 10 10.0
2014-Nov-20 17:44 153 2 gusting 7 10.0
2014-Nov-20 17:19 242 6 gusting 9 10.0
2014-Nov-20 17:04 255 8 gusting 9 9.4
2014-Nov-20 16:49 141 8.9
2014-Nov-20 16:29 179 8.9
2014-Nov-20 15:34 215 8 gusting 13 8.3
2014-Nov-20 15:14 199 13 gusting 17 8.3
2014-Nov-20 14:34 142 1 gusting 18 7.8
2014-Nov-20 14:09 178 16 gusting 20 7.8
2014-Nov-20 14:04 171 14 gusting 19 7.8
2014-Nov-20 13:44 179 15 gusting 18 7.8
2014-Nov-20 13:35 157 7 gusting 24 7.8
2014-Nov-20 13:15 167 16 gusting 19 7.2
2014-Nov-20 12:50 182 19 gusting 20 7.2
2014-Nov-20 12:35 125 2 gusting 17 7.2
2014-Nov-20 12:20 184 3 gusting 20 7.2
2014-Nov-20 12:05 176 12 gusting 21 7.2
2014-Nov-20 11:50 167 5 gusting 19 7.2
2014-Nov-20 11:15 051 6 gusting 17 6.7
2014-Nov-20 11:05 126 5 gusting 17 7.2
2014-Nov-20 10:35 201 3 gusting 17 7.2
2014-Nov-20 10:20 125 0 gusting 13 7.2
2014-Nov-20 10:05 196 6 gusting 12 7.2
2014-Nov-20 09:45 142 5 gusting 18 7.8
2014-Nov-20 09:20 159 3 gusting 13 8.3
2014-Nov-20 09:00 140 7 gusting 11 8.9
2014-Nov-20 08:50 157 6 gusting 17 8.9
2014-Nov-20 08:45 114 2 gusting 17 8.9
2014-Nov-20 08:25 173 6 gusting 15 9.4
2014-Nov-20 08:20 180 5 gusting 10 9.4
2014-Nov-20 08:00 149 10 gusting 10 10.0
2014-Nov-20 07:55 209 3 gusting 16 10.0
2014-Nov-20 07:45 164 7 gusting 15 10.0
2014-Nov-20 07:30 163 5 gusting 10 9.4
2014-Nov-20 07:15 171 1 gusting 11 10.0
2014-Nov-20 07:05 156 2 gusting 13 10.0
2014-Nov-20 06:49 143 5 gusting 17 10.0
2014-Nov-20 06:44 123 5 gusting 15 10.0
2014-Nov-20 06:35 083 0 gusting 11 10.0
2014-Nov-20 06:19 175 0 gusting 14 10.0
2014-Nov-20 05:59 252 6 gusting 8 9.4
2014-Nov-20 05:39 138 8.3
2014-Nov-20 05:34 119 8 gusting 14 8.3
2014-Nov-20 05:19 133 3 gusting 7 7.2
2014-Nov-20 05:04 188 0 gusting 7 6.7
2014-Nov-20 04:59 202 2 gusting 7 6.7
2014-Nov-20 04:44 187 6.7
2014-Nov-20 04:39 188 3 gusting 6 6.7
2014-Nov-20 04:34 231 6.7
2014-Nov-20 04:29 179 2 gusting 6 6.7
2014-Nov-20 04:24 228 6.7
2014-Nov-20 04:14 173 6.7
2014-Nov-20 04:09 173 6.7
2014-Nov-20 03:54 202 6.7
2014-Nov-20 03:49 202 2 gusting 5 6.7
2014-Nov-20 03:34 200 7.2
2014-Nov-20 03:19 181 7.2
2014-Nov-20 02:39 185 2 gusting 5 7.2
2014-Nov-20 02:29 184 2 gusting 3 7.2
2014-Nov-20 01:49 029 7.2
2014-Nov-20 01:34 029 1 gusting 1 7.8
2014-Nov-20 01:19 029 7.8
2014-Nov-20 00:59 029 8.3
2014-Nov-20 00:49 034 8.9
2014-Nov-20 00:24 034 5 gusting 7 9.4
2014-Nov-20 00:09 014 5 gusting 9 9.4
2014-Nov-20 00:04 360 7 gusting 9 9.4
2014-Nov-19 23:59 360 8 gusting 9 9.4
2014-Nov-19 23:44 360 11 gusting 11 9.4
2014-Nov-19 23:29 355 9 gusting 9 9.4
2014-Nov-19 23:10 360 7 gusting 9 9.4
2014-Nov-19 22:59 360 6 gusting 10 9.4
2014-Nov-19 22:55 005 9 gusting 9 9.4
2014-Nov-19 22:40 355 6 gusting 9 9.4
2014-Nov-19 22:34 346 5 gusting 8 9.4
2014-Nov-19 22:19 295 6 gusting 7 9.4
2014-Nov-19 21:50 334 6 gusting 12 8.9
2014-Nov-19 21:34 314 8 gusting 11 8.9
2014-Nov-19 21:19 331 10 gusting 11 8.9
2014-Nov-19 21:05 347 6 gusting 8 8.3
2014-Nov-19 20:45 009 8 gusting 10 8.3
2014-Nov-19 20:35 005 10 gusting 11 8.3
2014-Nov-19 20:20 360 10 gusting 12 8.3
2014-Nov-19 20:05 340 5 gusting 9 8.3
2014-Nov-19 19:50 346 5 gusting 7 7.8
2014-Nov-19 19:35 327 6 gusting 8 7.8
2014-Nov-19 19:05 331 3 gusting 6 7.2
2014-Nov-19 18:50 347 1 gusting 6 7.2
2014-Nov-19 18:45 344 5 gusting 5 7.2
2014-Nov-19 18:20 333 6.7
2014-Nov-19 18:00 321 6.1
2014-Nov-19 17:50 321 2 gusting 3 6.1
2014-Nov-19 17:30 195 5.6
2014-Nov-19 17:20 196 5.6
2014-Nov-19 16:55 196 5.0
2014-Nov-19 16:50 196 5.0
2014-Nov-19 16:45 196 4.4
2014-Nov-19 16:30 195 1 gusting 3 4.4
2014-Nov-19 16:25 196 1 gusting 2 4.4
2014-Nov-19 16:20 195 2 gusting 2 4.4
2014-Nov-19 16:10 195 2 gusting 2 4.4
2014-Nov-19 15:55 196 1 gusting 2 4.4
2014-Nov-19 15:50 196 1 gusting 2 4.4
2014-Nov-19 15:35 195 4.4
2014-Nov-19 15:20 192 1 gusting 1 3.9
2014-Nov-19 15:05 192 4.4
2014-Nov-19 14:55 192 4.4
2014-Nov-19 14:45 192 4.4
2014-Nov-19 14:30 192 1 gusting 2 3.9
2014-Nov-19 14:19 192 1 gusting 1 4.4
2014-Nov-19 14:14 192 4.4
2014-Nov-19 14:09 192 0 gusting 1 3.9
2014-Nov-19 14:04 192 3.9
2014-Nov-19 13:59 192 0 gusting 2 3.9
2014-Nov-19 13:39 192 1 gusting 2 3.9
2014-Nov-19 13:29 192 0 gusting 2 3.9
2014-Nov-19 13:19 192 1 gusting 3 3.9
2014-Nov-19 13:14 192 2 gusting 2 3.9
2014-Nov-19 13:09 192 2 gusting 2 3.9
2014-Nov-19 12:54 192 1 gusting 2 3.9
2014-Nov-19 12:49 192 1 gusting 3 3.9
2014-Nov-19 12:44 192 2 gusting 3 3.9
2014-Nov-19 12:14 192 3.9
2014-Nov-19 12:09 192 3.9
2014-Nov-19 11:59 192 0 gusting 2 3.9
2014-Nov-19 11:54 192 1 gusting 2 3.9
2014-Nov-19 11:44 192 1 gusting 2 3.9
2014-Nov-19 11:14 192 0 gusting 1 3.9
2014-Nov-19 11:04 192 0 gusting 2 3.9
2014-Nov-19 10:59 192 1 gusting 2 3.3
2014-Nov-19 10:54 192 1 gusting 3 3.3
2014-Nov-19 10:44 192 2 gusting 5 3.3
2014-Nov-19 10:24 187 3 gusting 3 3.3
2014-Nov-19 10:19 187 1 gusting 3 3.3
2014-Nov-19 09:44 187 2 gusting 5 3.3
2014-Nov-19 09:34 200 2 gusting 5 2.8
2014-Nov-19 09:09 204 3 gusting 3 2.8
2014-Nov-19 08:59 204 3 gusting 5 2.2
2014-Nov-19 08:49 207 2 gusting 3 2.2
2014-Nov-19 08:44 202 2 gusting 3 2.8
2014-Nov-19 08:34 202 3 gusting 3 2.2
2014-Nov-19 08:09 195 1 gusting 3 2.2
2014-Nov-19 08:04 195 2 gusting 3 2.2
2014-Nov-19 07:44 194 2 gusting 2 2.2
2014-Nov-19 07:39 194 1 gusting 3 2.8
2014-Nov-19 07:34 194 1 gusting 3 2.8
2014-Nov-19 07:29 194 2 gusting 5 2.8
2014-Nov-19 07:25 194 3 gusting 5 2.8
2014-Nov-19 06:40 194 3 gusting 6 2.8
2014-Nov-19 06:34 188 3 gusting 3 2.8
2014-Nov-19 06:19 205 2 gusting 3 2.8
2014-Nov-19 05:49 206 5 gusting 5 2.8
2014-Nov-19 05:29 188 2 gusting 3 3.3
2014-Nov-19 05:19 188 2 gusting 5 3.3
2014-Nov-19 05:04 192 3 gusting 5 3.3
2014-Nov-19 04:49 194 2 gusting 6 3.3
2014-Nov-19 04:34 194 3 gusting 5 3.3
2014-Nov-19 04:04 194 5 gusting 6 3.9
2014-Nov-19 03:59 198 5 gusting 6 3.9
2014-Nov-19 03:39 203 3 gusting 6 3.9
2014-Nov-19 03:34 198 3 gusting 6 3.9
2014-Nov-19 03:09 217 3 gusting 3 4.4
2014-Nov-19 03:00 205 2 gusting 2 4.4
2014-Nov-19 02:54 206 0 gusting 2 4.4
2014-Nov-19 02:40 206 4.4
2014-Nov-19 02:34 205 4.4
2014-Nov-19 02:00 206 2 gusting 2 4.4